Location: Hysolar-Haus
(48.7436°N, 9.0965°E)
Time: 20:09:17
(UTC+00:00)

OTV 5 (USA 277) - Visible Passes

Search period start: 14 October 2019 00:00
Search period end: 24 October 2019 00:00
Orbit: 310 x 324 km, 54.5° (Epoch: 08 October)

Date Brightness Start Highest point End Pass type
(mag) Time Alt. Az. Time Alt. Az. Time Alt. Az.
14 Oct ? 03:38:55 23° NNE 03:38:55 23° NNE 03:40:50 10° ENE visible
15 Oct ? 03:53:05 28° N 03:53:16 29° NNE 03:55:44 10° ENE visible
16 Oct ? 04:07:19 34° NNW 04:07:59 42° NNE 04:10:37 10° E visible
17 Oct ? 04:21:37 35° NW 04:22:37 81° NNE 04:25:22 10° ESE visible
18 Oct ? 03:05:07 11° E 03:05:07 11° E 03:05:19 10° E visible
18 Oct ? 04:36:01 27° W 04:37:08 44° SW 04:39:45 10° SE visible
19 Oct ? 03:19:36 14° ESE 03:19:36 14° ESE 03:20:08 10° ESE visible
19 Oct ? 04:50:31 16° WSW 04:51:32 20° SW 04:53:37 10° S visible
20 Oct ? 03:34:13 14° SE 03:34:13 14° SE 03:34:43 10° SE visible
